[[{"header":{"parameterUnit":"m.s-1","parameterCategory":1,"la1":30.2991,"la2":30.254,"lo1":-89.0895,"lo2":-89.0444,"dx":0.0017,"dy":0.0017,"nx":28,"ny":28,"refTime":"2022-11-28T15:00:00:Z","depth":0,"parameterNumber":2,"parameterNumberName":"U-component_of_WINDS"},"data":[0,0,0,0,0,0,0,0,0,0,0,0,0,0,0,0,0,0,0,0,0,0,0,0,0,0,0,0,0,0,0,0,0,0,0,0,0,0,0,0,0,0,0,0,0,0,0,0,0,0,0,0,0,0,0,0,0,0,-2.8215,-2.8216,0,-2.8329,-2.8331,-2.8332,-2.8372,-2.8371,-2.8371,-2.837,-2.849,-2.8494,-2.8497,0,0,0,0,0,0,0,0,0,0,0,0,0,-2.8032,-2.8035,-2.8214,-2.8216,-2.8217,-2.8329,-2.8331,-2.8332,-2.8372,-2.8371,-2.8371,-2.837,-2.8489,-2.8493,-2.8497,0,0,0,0,0,0,0,0,0,0,0,0,0,-2.8125,-2.8036,-2.8214,-2.825,-2.8255,-2.8329,-2.8331,-2.8333,-2.8372,-2.8371,-2.837,-2.837,-2.8487,-2.8493,-2.8498,-2.8545,0,0,-2.8515,-2.8517,0,0,0,0,0,0,0,0,-2.812,-2.8132,-2.8244,-2.8248,-2.8253,-2.8335,-2.831,-2.8404,-2.8372,-2.8327,-2.837,-2.8369,-2.8439,-2.8449,-2.8472,-2.8551,-2.8556,-2.8515,-2.8518,-2.8521,-2.8522,0,0,0,0,0,0,0,-2.8114,-2.8127,-2.826,-2.8245,-2.8251,-2.8262,-2.8274,-2.8328,-2.8386,-2.8331,-2.8334,-2.8347,-2.8442,-2.8466,-2.8475,-2.8558,-2.8515,-2.852,-2.8523,-2.8525,-2.8682,-2.8683,0,0,0,0,0,0,-2.8101,-2.8122,-2.8256,-2.8264,-2.8183,-2.8266,-2.828,-2.831,-2.8385,-2.8396,-2.8348,-2.8349,-2.8457,-2.8468,-2.8479,-2.854,-2.8521,-2.8526,-2.8529,-2.8681,-2.8682,-2.8683,0,0,0,0,0,0,-2.8097,-2.8112,-2.8252,-2.8194,-2.8212,-2.8269,-2.8303,-2.8312,-2.8337,-2.8398,-2.8409,-2.8362,-2.8457,-2.8472,-2.8529,-2.8544,-2.8528,-2.8533,-2.868,-2.8682,-2.8683,-2.866,0,0,0,0,0,0,-2.8091,-2.8111,-2.8128,-2.8194,-2.8215,-2.8298,-2.8304,-2.8315,-2.8346,-2.8348,-2.8414,-2.8425,-2.8458,-2.852,-2.8534,-2.8551,-2.8537,-2.8679,-2.8681,-2.8683,-2.866,-2.8661,-2.8661,0,0,0,0,0,-2.8084,-2.8118,-2.8129,-2.8145,-2.8238,-2.8299,-2.8311,-2.8348,-2.8347,-2.8366,-2.8405,-2.8422,-2.8541,-2.8526,-2.8541,-2.8561,-2.8678,-2.868,-2.8682,-2.866,-2.8661,-2.8661,0,0,0,0,0,0,-2.8053,-2.8127,-2.814,-2.8195,-2.8241,-2.8305,-2.833,-2.8348,-2.8395,-2.8396,-2.8441,-2.8455,-2.8509,-2.8541,-2.8523,-2.8611,-2.861,-2.8616,-2.8588,-2.8589,-2.859,-2.8581,-2.8542,0,0,0,0,0,-2.8053,-2.8095,-2.8158,-2.82,-2.8222,-2.8272,-2.83,-2.8325,-2.8374,-2.8393,-2.8437,-2.8484,-2.8532,-2.8563,-2.861,-2.8665,-2.868,-2.8687,-2.8687,-2.8688,-2.8691,-2.8723,-2.8727,-2.869,-2.869,-2.869,0,0,-2.8052,-2.8098,-2.8122,-2.8195,-2.8233,-2.8277,-2.8288,-2.8334,-2.8367,-2.8401,-2.8456,-2.849,-2.8546,-2.8602,-2.863,-2.8631,-2.8705,-2.869,-2.869,-2.8694,-2.8726,-2.8729,-2.8732,-2.8692,-2.8691,-2.8691,0,0,-2.8074,-2.8112,-2.8152,-2.819,-2.8247,-2.828,-2.829,-2.8352,-2.8375,-2.8432,-2.8459,-2.85,-2.8581,-2.862,-2.865,-2.8687,-2.8705,-2.8702,-2.8705,-2.8736,-2.8739,-2.8742,-2.8755,-2.8759,-2.8705,-2.8705,-2.8705,0,-2.8066,-2.8132,-2.817,-2.8215,-2.8246,-2.8279,-2.832,-2.8355,-2.8425,-2.8446,-2.8447,-2.855,-2.859,-2.8656,-2.8665,-2.8689,-2.8702,-2.8694,-2.8735,-2.8738,-2.8741,-2.8754,-2.8759,-2.8705,-2.8705,-2.8705,-2.8705,0,-2.8119,-2.8165,-2.819,-2.8256,-2.8291,-2.8333,-2.8379,-2.841,-2.8432,-2.8466,-2.8524,-2.8573,-2.8631,-2.8649,-2.8671,-2.8719,-2.8718,-2.8726,-2.8726,-2.8743,-2.8756,-2.8762,-2.8703,-2.8704,-2.8704,-2.8704,0,0,-2.8123,-2.821,-2.8219,-2.8249,-2.8315,-2.8351,-2.8396,-2.8452,-2.8478,-2.8525,-2.8564,-2.8633,-2.8641,-2.8675,-2.8703,-2.873,-2.8756,-2.8735,-2.8737,-2.8737,-2.8811,-2.8803,-2.8808,-2.8768,-2.8769,-2.877,-2.8806,0,-2.8153,-2.8232,-2.8269,-2.8332,-2.8375,-2.8407,-2.8446,-2.8491,-2.8523,-2.8565,-2.8602,-2.865,-2.8657,-2.8678,-2.8706,-2.8746,-2.8771,-2.8745,-2.8805,-2.8807,-2.8789,-2.8815,-2.8808,-2.8839,-2.8811,-2.8812,-2.8813,0,-2.8197,-2.8244,-2.8311,-2.8372,-2.8392,-2.8425,-2.848,-2.852,-2.8572,-2.8594,-2.8633,-2.8659,-2.8708,-2.8705,-2.8774,-2.8755,-2.8782,-2.8806,-2.8808,-2.8814,-2.881,-2.8822,-2.885,-2.8854,-2.8821,-2.8821,-2.882,0,-2.8193,-2.8273,-2.8324,-2.8349,-2.8421,-2.8444,-2.8476,-2.8527,-2.8559,-2.8607,-2.8628,-2.8682,-2.8711,-2.8753,-2.8793,-2.8788,-2.8858,-2.8859,-2.8878,-2.8877,-2.889,-2.8889,-2.8922,-2.8909,-2.8909,-2.8909,-2.8909,0,-2.8222,-2.8261,-2.8322,-2.8353,-2.84,-2.8442,-2.8487,-2.8521,-2.8566,-2.8605,-2.8637,-2.8673,-2.8725,-2.8768,-2.88,-2.8852,-2.8865,-2.8885,-2.8893,-2.8881,-2.8879,-2.8899,-2.8898,-2.891,-2.891,-2.891,-2.8909,0,-2.8224,-2.8266,-2.8324,-2.8387,-2.8405,-2.8436,-2.8491,-2.8523,-2.8557,-2.8606,-2.862,-2.8675,-2.8727,-2.8772,-2.8841,-2.8863,-2.8916,-2.8926,-2.8898,-2.8902,-2.8919,-2.8916,-2.8966,-2.8975,-2.8956,-2.8956,-2.8956,0,-2.8239,-2.827,-2.8337,-2.8365,-2.8396,-2.8441,-2.8473,-2.8516,-2.8549,-2.8611,-2.8636,-2.869,-2.8736,-2.8818,-2.8864,-2.8918,-2.8929,-2.8943,-2.8937,-2.8925,-2.8929,-2.8926,-2.893,-2.8943,-2.8943,-2.8943,-2.8943,0,-2.8261,-2.8281,-2.8325,-2.8378,-2.8415,-2.8458,-2.8503,-2.8524,-2.8576,-2.8611,-2.8665,-2.87,-2.877,-2.8824,-2.8883,-2.8917,-2.8938,-2.8944,-2.8951,-2.894,-2.8922,-2.8932,-2.8898,-2.8943,-2.8943,-2.8943,-2.8943,-2.8943,-2.8271,-2.83,-2.8351,-2.84,-2.8438,-2.8479,-2.8512,-2.8551,-2.8596,-2.8655,-2.8679,-2.8733,-2.8786,-2.8867,-2.89,-2.8945,-2.8948,-2.8958,-2.8961,-2.8963,-2.8961,-2.8915,-2.8956,-2.8956,-2.8956,-2.8956,-2.8956,0,-2.8294,-2.8329,-2.8373,-2.8434,-2.8473,-2.8489,-2.854,-2.8571,-2.8618,-2.8665,-2.8709,-2.8771,-2.8823,-2.8874,-2.893,-2.8955,-2.8967,-2.8968,-2.8967,-2.8974,-2.8955,-2.8943,-2.8958,-2.8958,-2.8958,-2.8958,-2.8958,-2.8958,-2.8311,-2.8361,-2.8387,-2.8457,-2.8492,-2.8545,-2.8572,-2.861,-2.8648,-2.8714,-2.8758,-2.879,-2.8839,-2.8898,-2.8948,-2.8961,-2.898,-2.8979,-2.8995,-2.8976,-2.8975,-2.8975,-2.8963,-2.8983,-2.8983,-2.9011,-2.9011,-2.9011]},{"header":{"parameterUnit":"m.s-1","parameterCategory":1,"la1":30.2991,"la2":30.254,"lo1":-89.0895,"lo2":-89.0444,"dx":0.0017,"dy":0.0017,"nx":28,"ny":28,"refTime":"2022-11-28T15:00:00:Z","depth":0,"parameterNumber":3,"parameterNumberName":"V-component_of_WINDS"},"data":[0,0,0,0,0,0,0,0,0,0,0,0,0,0,0,0,0,0,0,0,0,0,0,0,0,0,0,0,0,0,0,0,0,0,0,0,0,0,0,0,0,0,0,0,0,0,0,0,0,0,0,0,0,0,0,0,0,0,4.9873,4.9874,0,4.9973,4.9975,4.9976,4.9988,4.9987,4.9986,4.9985,5.0088,5.0092,5.0096,0,0,0,0,0,0,0,0,0,0,0,0,0,4.9693,4.9696,4.9873,4.9874,4.9875,4.9973,4.9975,4.9976,4.9988,4.9986,4.9985,4.9984,5.0087,5.0091,5.0096,0,0,0,0,0,0,0,0,0,0,0,0,0,4.978,4.9697,4.9873,4.9893,4.9896,4.9973,4.9975,4.9976,4.9988,4.9986,4.9985,4.9984,5.0086,5.0091,5.0097,5.0161,0,0,5.0113,5.0116,0,0,0,0,0,0,0,0,4.9775,4.9787,4.9889,4.9892,4.9895,4.9966,4.9949,5.0038,4.9988,4.9953,4.9985,4.9983,5.0049,5.0057,5.008,5.0165,5.017,5.0114,5.0117,5.012,5.0121,0,0,0,0,0,0,0,4.9769,4.9783,4.9913,4.989,4.9894,4.9898,4.9909,4.9966,5.0008,4.9956,4.9957,4.9969,5.005,5.0074,5.0082,5.0171,5.0114,5.0119,5.0122,5.0124,5.0319,5.032,0,0,0,0,0,0,4.9759,4.9777,4.9909,4.9916,4.983,4.9902,4.9914,4.9945,5.0008,5.0016,4.997,4.9969,5.0066,5.0076,5.0086,5.0168,5.012,5.0125,5.0128,5.0317,5.0319,5.0321,0,0,0,0,0,0,4.9755,4.9771,4.9905,4.9847,4.9864,4.9907,4.9941,4.9948,4.9972,5.0018,5.0026,4.9986,5.0065,5.0078,5.0143,5.0172,5.0127,5.0132,5.0315,5.0317,5.032,5.0331,0,0,0,0,0,0,4.975,4.9769,4.9793,4.9847,4.9867,4.996,4.9943,4.9951,4.9981,4.9981,5.0036,5.0043,5.0065,5.0134,5.0148,5.0178,5.0137,5.0312,5.0316,5.0319,5.0328,5.0333,5.0338,0,0,0,0,0,4.9744,4.9792,4.9795,4.9811,4.9898,4.9961,4.9973,4.9996,4.9983,5.0009,5.0039,5.0042,5.0166,5.0141,5.0157,5.0189,5.0311,5.0315,5.0319,5.0326,5.0332,5.0338,0,0,0,0,0,0,4.974,4.9799,4.9803,4.987,4.9911,4.9963,4.9996,5.0002,5.0047,5.0045,5.0072,5.0085,5.0149,5.0175,5.0146,5.0256,5.0237,5.0244,5.0237,5.0244,5.0249,5.0242,5.0141,0,0,0,0,0,4.9747,4.9793,4.9842,4.9897,4.9917,4.9953,4.9981,4.9996,5.0039,5.0056,5.0091,5.0134,5.0183,5.0214,5.0261,5.0331,5.0345,5.0361,5.0366,5.037,5.0377,5.0419,5.0428,5.0335,5.0335,5.0334,0,0,4.9762,4.98,4.9827,4.9897,4.993,4.9979,4.9967,5.0018,5.0054,5.0064,5.0128,5.0155,5.0204,5.0273,5.0305,5.0297,5.0406,5.0375,5.0378,5.0383,5.0424,5.0433,5.0441,5.0337,5.0337,5.0336,0,0,4.9815,4.9847,4.9898,4.9931,4.9982,5.0006,5.0018,5.007,5.0089,5.0153,5.0163,5.0206,5.0289,5.0325,5.0354,5.0422,5.0427,5.0436,5.0464,5.0505,5.0512,5.0519,5.0546,5.0555,5.0443,5.0443,5.0443,0,4.9828,4.99,4.9923,4.9974,5.0006,5.0017,5.0069,5.0101,5.0164,5.0187,5.0176,5.0282,5.0316,5.0394,5.0411,5.0433,5.045,5.0431,5.0509,5.0516,5.0523,5.0549,5.0559,5.0444,5.0444,5.0443,5.0443,0,4.9915,4.9965,4.9999,5.0062,5.0097,5.0148,5.018,5.0213,5.0224,5.025,5.0317,5.0358,5.0415,5.0434,5.0445,5.0515,5.0509,5.0503,5.0485,5.0532,5.0558,5.0568,5.0445,5.0445,5.0444,5.0444,0,0,4.9969,5.0044,5.0056,5.0086,5.0143,5.0183,5.0235,5.0292,5.0321,5.0364,5.0411,5.0481,5.0478,5.051,5.0526,5.0561,5.0617,5.0552,5.0554,5.0565,5.07,5.0706,5.0717,5.062,5.0621,5.0623,5.0697,0,5.003,5.0125,5.0148,5.0229,5.0277,5.0289,5.0335,5.0376,5.0402,5.0447,5.0475,5.0526,5.0515,5.0536,5.0571,5.0602,5.0645,5.0597,5.0666,5.0668,5.0656,5.073,5.0736,5.0803,5.0706,5.0708,5.0709,0,5.0115,5.0162,5.0248,5.0302,5.0323,5.0364,5.0419,5.0461,5.0508,5.0525,5.0562,5.0575,5.0632,5.0609,5.069,5.0657,5.0686,5.0706,5.0709,5.0719,5.0693,5.0744,5.0825,5.0836,5.0725,5.0723,5.0722,0,5.015,5.0234,5.0298,5.0322,5.0385,5.0414,5.0442,5.0488,5.0521,5.0569,5.0591,5.0644,5.0674,5.0716,5.0743,5.0724,5.0823,5.0801,5.084,5.0839,5.0862,5.0861,5.0952,5.0876,5.0876,5.0875,5.0875,0,5.0219,5.0272,5.0315,5.0354,5.0415,5.044,5.05,5.0528,5.0569,5.0615,5.0627,5.067,5.0702,5.075,5.0772,5.0837,5.0849,5.0866,5.0871,5.0867,5.0865,5.0888,5.0885,5.0878,5.0877,5.0877,5.0876,0,5.0269,5.0299,5.037,5.0424,5.0439,5.0482,5.0529,5.0568,5.0594,5.0652,5.0667,5.0708,5.0765,5.0796,5.0867,5.0882,5.0956,5.0957,5.094,5.0943,5.0981,5.0978,5.1093,5.111,5.1019,5.102,5.1021,0,5.0312,5.0354,5.0413,5.0445,5.0473,5.0524,5.0558,5.0585,5.0621,5.0679,5.0712,5.077,5.0818,5.0909,5.0946,5.1001,5.1006,5.1042,5.1014,5.1009,5.1011,5.1009,5.1015,5.1048,5.1049,5.1049,5.105,0,5.0387,5.04,5.0449,5.0504,5.0544,5.0589,5.0632,5.0658,5.0693,5.0732,5.0791,5.0828,5.0902,5.0961,5.1019,5.1049,5.1057,5.1058,5.107,5.1067,5.1057,5.1067,5.0957,5.1056,5.1055,5.1055,5.1054,5.1054,5.0437,5.0476,5.0524,5.0579,5.0615,5.0656,5.0697,5.0728,5.0777,5.084,5.0852,5.0916,5.0964,5.1043,5.1075,5.1126,5.1119,5.1135,5.114,5.1145,5.1149,5.1047,5.1136,5.1136,5.1135,5.1135,5.1135,0,5.0515,5.0547,5.0597,5.0659,5.0702,5.0704,5.0754,5.079,5.0846,5.089,5.0937,5.1007,5.1064,5.1105,5.1164,5.1197,5.1202,5.1211,5.1211,5.1218,5.115,5.1135,5.1206,5.1206,5.1206,5.1206,5.1206,5.1206,5.0561,5.0628,5.0647,5.0732,5.0764,5.0826,5.0855,5.0893,5.0929,5.1006,5.1054,5.108,5.1124,5.1186,5.1239,5.125,5.1273,5.1283,5.1294,5.123,5.1223,5.1215,5.1202,5.1286,5.1286,5.1359,5.136,5.136]}]]